Bowling Green, Kentucky, United States (42101)
Lat: 36.99N, Lon: 86.44W
Wx Zone: KYZ071
Local Info
Past Weather Observations for Friday, April 18, 2014

NOTE: This archive is for the closest National Weather Service station to Bowling Green. Information may differ from the station used for current weather conditions.

Time Weather Temperature Dewpoint Humidity Pressure Winds Precip Visibility
23:55
Clear
48°F / 9°C 45°F / 7°C 87% 30.18 in
(1022 mb)
Calm - 10SM
23:35
Clear
48°F / 9°C 45°F / 7°C 87% 30.18 in
(1022 mb)
Calm - 10SM
23:15
Clear
50°F / 10°C 45°F / 7°C 82% 30.21 in
(1023 mb)
Calm - 10SM
22:55
Clear
50°F / 10°C 45°F / 7°C 82% 30.21 in
(1023 mb)
Calm - 10SM
22:35
Clear
50°F / 10°C 45°F / 7°C 82% 30.21 in
(1023 mb)
Calm - 10SM
22:15
Clear
50°F / 10°C 45°F / 7°C 82% 30.21 in
(1023 mb)
Calm - 10SM
21:55
Clear
52°F / 11°C 45°F / 7°C 77% 30.21 in
(1023 mb)
Calm - 10SM
21:35
Clear
52°F / 11°C 45°F / 7°C 77% 30.21 in
(1023 mb)
Calm - 10SM
21:15
Clear
54°F / 12°C 45°F / 7°C 72% 30.21 in
(1023 mb)
Calm - 10SM
20:55
Clear
54°F / 12°C 45°F / 7°C 72% 30.21 in
(1023 mb)
Calm - 10SM
20:35
Clear
54°F / 12°C 45°F / 7°C 72% 30.21 in
(1023 mb)
Calm - 10SM
20:15
Clear
55°F / 13°C 46°F / 8°C 72% 30.21 in
(1023 mb)
Calm - 10SM
19:55
Clear
57°F / 14°C 45°F / 7°C 63% 30.21 in
(1023 mb)
Calm - 10SM
19:35
Clear
57°F / 14°C 46°F / 8°C 67% 30.21 in
(1023 mb)
Calm - 10SM
19:15
Clear
57°F / 14°C 46°F / 8°C 67% 30.18 in
(1022 mb)
Calm - 10SM
18:55
Clear
59°F / 15°C 46°F / 8°C 63% 30.18 in
(1022 mb)
Calm - 10SM
18:35
Clear
61°F / 16°C 46°F / 8°C 59% 30.18 in
(1022 mb)
Calm - 10SM
18:15
Clear
64°F / 18°C 45°F / 7°C 49% 30.18 in
(1022 mb)
Calm - 10SM
17:55
Clear
64°F / 18°C 45°F / 7°C 49% 30.18 in
(1022 mb)
Calm - 10SM
17:35
Clear
66°F / 19°C 46°F / 8°C 49% 30.18 in
(1022 mb)
Calm - 10SM
17:15
Clear
66°F / 19°C 46°F / 8°C 49% 30.18 in
(1022 mb)
Calm - 10SM
16:55
Clear
66°F / 19°C 45°F / 7°C 46% 30.18 in
(1022 mb)
Calm - 10SM
16:35
Clear
68°F / 20°C 45°F / 7°C 43% 30.18 in
(1022 mb)
Calm - 10SM
16:15
Clear
68°F / 20°C 45°F / 7°C 43% 30.18 in
(1022 mb)
Calm - 10SM
15:55
Clear
68°F / 20°C 45°F / 7°C 43% 30.18 in
(1022 mb)
Calm - 10SM
15:35
Clear
68°F / 20°C 45°F / 7°C 43% 30.18 in
(1022 mb)
Calm - 10SM
15:15
Clear
68°F / 20°C 45°F / 7°C 43% 30.21 in
(1023 mb)
NE 3.5 mph
(NE 6 kph)
- 10SM
14:55
Partly Cloudy
68°F / 20°C 43°F / 6°C 40% 30.21 in
(1023 mb)
NNW 8.1 mph
(NNW 13 kph)
- 10SM
14:35
Mostly Cloudy
68°F / 20°C 45°F / 7°C 43% 30.21 in
(1023 mb)
Calm - 10SM
14:15
Partly Cloudy
70°F / 21°C 43°F / 6°C 38% 30.24 in
(1024 mb)
Calm - 10SM
13:55
Clear
70°F / 21°C 45°F / 7°C 40% 30.24 in
(1024 mb)
Calm - 10SM
13:35
Partly Cloudy
68°F / 20°C 45°F / 7°C 43% 30.24 in
(1024 mb)
E 3.5 mph
(E 6 kph)
- 10SM
13:15
Mostly Cloudy
68°F / 20°C 45°F / 7°C 43% 30.27 in
(1025 mb)
Calm - 10SM
12:55
Mostly Cloudy
68°F / 20°C 46°F / 8°C 46% 30.27 in
(1025 mb)
Calm - 10SM
12:35
Partly Cloudy
68°F / 20°C 46°F / 8°C 46% 30.27 in
(1025 mb)
NE 4.6 mph
(NE 7 kph)
- 10SM
12:15
Clear
68°F / 20°C 46°F / 8°C 46% 30.27 in
(1025 mb)
N 3.5 mph
(N 6 kph)
- 10SM
11:55
Clear
68°F / 20°C 45°F / 7°C 43% 30.27 in
(1025 mb)
SSW 3.5 mph
(SSW 6 kph)
- 10SM
11:35
Clear
68°F / 20°C 45°F / 7°C 43% 30.3 in
(1026 mb)
Calm - 10SM
11:15
Clear
66°F / 19°C 43°F / 6°C 43% 30.3 in
(1026 mb)
Calm - 10SM
10:55
Clear
66°F / 19°C 43°F / 6°C 43% 30.3 in
(1026 mb)
SW 4.6 mph
(SW 7 kph)
- 10SM
10:35
Partly Cloudy
64°F / 18°C 43°F / 6°C 46% 30.3 in
(1026 mb)
SW 4.6 mph
(SW 7 kph)
- 10SM
10:15
Clear
64°F / 18°C 41°F / 5°C 43% 30.3 in
(1026 mb)
SW 4.6 mph
(SW 7 kph)
- 10SM
09:55
Clear
64°F / 18°C 41°F / 5°C 43% 30.33 in
(1027 mb)
SW 4.6 mph
(SW 7 kph)
- 10SM
09:35
Clear
63°F / 17°C 41°F / 5°C 45% 30.33 in
(1027 mb)
SSW 3.5 mph
(SSW 6 kph)
- 10SM
09:15
Clear
63°F / 17°C 41°F / 5°C 45% 30.33 in
(1027 mb)
SW 3.5 mph
(SW 6 kph)
- 10SM
08:55
Clear
61°F / 16°C 41°F / 5°C 48% 30.33 in
(1027 mb)
SSE 3.5 mph
(SSE 6 kph)
- 10SM
08:35
Clear
61°F / 16°C 41°F / 5°C 48% 30.33 in
(1027 mb)
Calm - 10SM
08:15
Clear
59°F / 15°C 43°F / 6°C 55% 30.3 in
(1026 mb)
Calm - 10SM
07:55
Clear
57°F / 14°C 45°F / 7°C 63% 30.3 in
(1026 mb)
Calm - 10SM
07:35
Partly Cloudy
55°F / 13°C 45°F / 7°C 67% 30.3 in
(1026 mb)
Calm - 10SM
07:15
Overcast
54°F / 12°C 45°F / 7°C 72% 30.33 in
(1027 mb)
Calm - 10SM
06:55
Mostly Cloudy
52°F / 11°C 46°F / 8°C 82% 30.33 in
(1027 mb)
Calm - 10SM
06:35
Partly Cloudy
50°F / 10°C 45°F / 7°C 82% 30.33 in
(1027 mb)
Calm - 10SM
06:15
Partly Cloudy
50°F / 10°C 45°F / 7°C 82% 30.3 in
(1026 mb)
Calm - 10SM
05:55
Mostly Cloudy
48°F / 9°C 43°F / 6°C 82% 30.3 in
(1026 mb)
Calm - 10SM
05:35
Mostly Cloudy
48°F / 9°C 43°F / 6°C 82% 30.3 in
(1026 mb)
Calm - 10SM
05:15
Overcast
48°F / 9°C 43°F / 6°C 82% 30.3 in
(1026 mb)
Calm - 10SM
04:55
Overcast
48°F / 9°C 41°F / 5°C 76% 30.27 in
(1025 mb)
Calm - 10SM
04:35
Mostly Cloudy
48°F / 9°C 41°F / 5°C 76% 30.27 in
(1025 mb)
Calm - 10SM
04:15
Clear
48°F / 9°C 41°F / 5°C 76% 30.27 in
(1025 mb)
Calm - 10SM
03:55
Clear
48°F / 9°C 41°F / 5°C 76% 30.27 in
(1025 mb)
Calm - 10SM
03:35
Clear
48°F / 9°C 39°F / 4°C 71% 30.27 in
(1025 mb)
Calm - 10SM
03:15
Clear
50°F / 10°C 39°F / 4°C 67% 30.27 in
(1025 mb)
Calm - 10SM
02:55
Clear
50°F / 10°C 37°F / 3°C 62% 30.27 in
(1025 mb)
Calm - 10SM
02:35
Clear
48°F / 9°C 39°F / 4°C 71% 30.27 in
(1025 mb)
Calm - 10SM
02:15
Clear
46°F / 8°C 41°F / 5°C 82% 30.27 in
(1025 mb)
Calm - 10SM
01:55
Clear
46°F / 8°C 39°F / 4°C 76% 30.27 in
(1025 mb)
Calm - 10SM
01:35
Clear
46°F / 8°C 41°F / 5°C 82% 30.27 in
(1025 mb)
Calm - 10SM
01:15
Clear
46°F / 8°C 41°F / 5°C 82% 30.27 in
(1025 mb)
Calm - 10SM
00:55
Clear
45°F / 7°C 41°F / 5°C 87% 30.27 in
(1025 mb)
Calm - 10SM
00:35
Clear
45°F / 7°C 39°F / 4°C 81% 30.27 in
(1025 mb)
Calm - 10SM
00:15
Clear
45°F / 7°C 39°F / 4°C 81% 30.27 in
(1025 mb)
Calm - 10SM
Time Weather Temperature Dewpoint Humidity Pressure Winds Precip Visibility


Weather for websites

WeatherForYou.com, LLC is not responsible for any damages or problems caused by this service. Current weather conditions are obtained from the closest station including government and personal stations which may have varying degrees of accuracy. Weather forecasts are derived from the NOAA NDFD. Like all things, this site belongs to Jesus Christ... He just trusts me to maintain it. If you have any questions or comments email webmaster@weatherforyou.com

Copyright © 2014, WeatherForYou.com LLC. All rights reserved.